Time,TemperatureF,DewpointF,PressureIn,WindDirection,WindDirectionDegrees,WindSpeedMPH,WindSpeedGustMPH,Humidity,HourlyPrecipIn,Conditions,Clouds,dailyrainin,SoftwareType,DateUTC
2013-10-15 00:01:00,61.3,57.4,30.11,NW,319,0.0,-999.0,87,0.00,,,0.00,Wunderground v.1.12,2013-10-15 04:01:00,
2013-10-15 00:03:00,61.3,57.4,30.11,NW,319,0.0,-999.0,87,0.00,,,0.00,Wunderground v.1.12,2013-10-15 04:03:00,
2013-10-15 00:08:00,61.3,57.4,30.11,NW,319,0.0,-999.0,87,0.00,,,0.00,Wunderground v.1.12,2013-10-15 04:08:00,
2013-10-15 00:09:00,61.3,57.4,30.11,NW,319,0.0,-999.0,87,0.00,,,0.00,Wunderground v.1.12,2013-10-15 04:09:00,
2013-10-15 00:11:00,61.3,57.4,30.11,NW,319,0.0,-999.0,87,0.00,,,0.00,Wunderground v.1.12,2013-10-15 04:11:00,
2013-10-15 00:16:00,61.3,57.4,30.11,NW,319,0.0,-999.0,87,0.00,,,0.00,Wunderground v.1.12,2013-10-15 04:16:00,
2013-10-15 00:23:00,61.3,57.7,30.12,NW,319,0.0,-999.0,88,0.00,,,0.00,Wunderground v.1.12,2013-10-15 04:23:00,
2013-10-15 00:28:00,61.3,58.0,30.12,NW,319,0.0,-999.0,89,0.00,,,0.00,Wunderground v.1.12,2013-10-15 04:28:00,
2013-10-15 00:33:00,61.5,58.2,30.12,NW,319,0.0,-999.0,89,0.00,,,0.00,Wunderground v.1.12,2013-10-15 04:33:00,
2013-10-15 00:39:00,61.5,58.2,30.12,NW,319,0.0,-999.0,89,0.00,,,0.00,Wunderground v.1.12,2013-10-15 04:39:00,
2013-10-15 00:44:00,61.6,58.3,30.12,NW,319,0.0,-999.0,89,0.00,,,0.00,Wunderground v.1.12,2013-10-15 04:44:00,
2013-10-15 00:50:00,61.6,58.6,30.12,NW,319,0.0,-999.0,90,0.00,,,0.00,Wunderground v.1.12,2013-10-15 04:50:00,
2013-10-15 00:55:00,61.6,58.6,30.12,NW,319,0.0,-999.0,90,0.00,,,0.00,Wunderground v.1.12,2013-10-15 04:55:00,
2013-10-15 01:01:00,61.6,58.3,30.12,NW,319,0.0,-999.0,89,0.00,,,0.00,Wunderground v.1.12,2013-10-15 05:01:00,
2013-10-15 01:06:00,61.6,58.3,30.12,NW,319,0.0,-999.0,89,0.00,,,0.00,Wunderground v.1.12,2013-10-15 05:06:00,
2013-10-15 01:11:00,61.5,58.2,30.12,NW,319,0.0,-999.0,89,0.00,,,0.00,Wunderground v.1.12,2013-10-15 05:11:00,
2013-10-15 01:18:00,61.5,58.2,30.12,NW,319,0.0,-999.0,89,0.00,,,0.00,Wunderground v.1.12,2013-10-15 05:18:00,
2013-10-15 01:23:00,61.3,58.0,30.12,NW,319,0.0,-999.0,89,0.00,,,0.00,Wunderground v.1.12,2013-10-15 05:23:00,
2013-10-15 01:28:00,61.3,58.0,30.12,NW,319,0.0,-999.0,89,0.00,,,0.00,Wunderground v.1.12,2013-10-15 05:28:00,
2013-10-15 01:34:00,61.2,57.9,30.12,NW,319,0.0,-999.0,89,0.00,,,0.00,Wunderground v.1.12,2013-10-15 05:34:00,
2013-10-15 01:40:00,61.0,57.7,30.12,NW,319,0.0,-999.0,89,0.00,,,0.00,Wunderground v.1.12,2013-10-15 05:40:00,
2013-10-15 01:46:00,60.9,57.6,30.12,NW,319,0.0,-999.0,89,0.00,,,0.00,Wunderground v.1.12,2013-10-15 05:46:00,
2013-10-15 01:53:00,60.9,57.6,30.11,NW,319,0.0,-999.0,89,0.00,,,0.00,Wunderground v.1.12,2013-10-15 05:53:00,
2013-10-15 01:58:00,60.7,57.4,30.11,NW,319,0.0,-999.0,89,0.00,,,0.00,Wunderground v.1.12,2013-10-15 05:58:00,
2013-10-15 02:03:00,60.7,57.4,30.11,NW,319,0.0,-999.0,89,0.00,,,0.00,Wunderground v.1.12,2013-10-15 06:03:00,
2013-10-15 02:08:00,60.7,57.4,30.11,NW,319,0.0,-999.0,89,0.00,,,0.00,Wunderground v.1.12,2013-10-15 06:08:00,
2013-10-15 02:13:00,60.5,57.2,30.11,NW,319,0.0,-999.0,89,0.00,,,0.00,Wunderground v.1.12,2013-10-15 06:13:00,
2013-10-15 02:18:00,60.5,57.2,30.11,NW,319,0.0,-999.0,89,0.00,,,0.00,Wunderground v.1.12,2013-10-15 06:18:00,
2013-10-15 02:23:00,60.5,57.6,30.10,NW,319,0.0,-999.0,90,0.00,,,0.00,Wunderground v.1.12,2013-10-15 06:23:00,
2013-10-15 02:28:00,60.7,57.7,30.10,NW,319,0.0,-999.0,90,0.00,,,0.00,Wunderground v.1.12,2013-10-15 06:28:00,
2013-10-15 02:34:00,60.7,57.7,30.10,NW,319,0.0,-999.0,90,0.00,,,0.00,Wunderground v.1.12,2013-10-15 06:34:00,
2013-10-15 02:39:00,60.9,58.3,30.10,NW,319,0.0,-999.0,91,0.00,,,0.00,Wunderground v.1.12,2013-10-15 06:39:00,
2013-10-15 02:44:00,60.9,58.3,30.10,NW,319,0.0,-999.0,91,0.00,,,0.00,Wunderground v.1.12,2013-10-15 06:44:00,
2013-10-15 02:49:00,61.0,58.4,30.10,NW,319,0.0,-999.0,91,0.00,,,0.00,Wunderground v.1.12,2013-10-15 06:49:00,
2013-10-15 02:54:00,61.0,58.4,30.09,NW,319,0.0,-999.0,91,0.00,,,0.00,Wunderground v.1.12,2013-10-15 06:54:00,
2013-10-15 02:59:00,61.2,58.6,30.09,NW,319,0.0,-999.0,91,0.00,,,0.00,Wunderground v.1.12,2013-10-15 06:59:00,
2013-10-15 03:05:00,61.2,58.9,30.09,NW,319,0.0,-999.0,92,0.00,,,0.00,Wunderground v.1.12,2013-10-15 07:05:00,
2013-10-15 03:10:00,61.3,59.0,30.09,NW,319,0.0,-999.0,92,0.00,,,0.00,Wunderground v.1.12,2013-10-15 07:10:00,
2013-10-15 03:15:00,61.3,59.0,30.09,NW,319,0.0,-999.0,92,0.00,,,0.00,Wunderground v.1.12,2013-10-15 07:15:00,
2013-10-15 03:20:00,61.3,59.0,30.09,NW,319,0.0,-999.0,92,0.00,,,0.00,Wunderground v.1.12,2013-10-15 07:20:00,
2013-10-15 03:25:00,61.5,59.2,30.09,NW,319,0.0,-999.0,92,0.00,,,0.00,Wunderground v.1.12,2013-10-15 07:25:00,
2013-10-15 03:30:00,61.5,59.2,30.09,NW,319,0.0,-999.0,92,0.00,,,0.00,Wunderground v.1.12,2013-10-15 07:30:00,
2013-10-15 03:35:00,61.6,59.3,30.09,NW,319,0.0,-999.0,92,0.00,,,0.00,Wunderground v.1.12,2013-10-15 07:35:00,
2013-10-15 03:40:00,61.6,59.3,30.09,NW,319,0.0,-999.0,92,0.00,,,0.00,Wunderground v.1.12,2013-10-15 07:40:00,
2013-10-15 03:45:00,61.6,59.3,30.09,NW,319,0.0,-999.0,92,0.00,,,0.00,Wunderground v.1.12,2013-10-15 07:45:00,
2013-10-15 03:50:00,61.8,59.5,30.09,NW,319,0.0,-999.0,92,0.00,,,0.00,Wunderground v.1.12,2013-10-15 07:50:00,
2013-10-15 03:55:00,61.8,59.5,30.09,NW,319,0.0,-999.0,92,0.00,,,0.00,Wunderground v.1.12,2013-10-15 07:55:00,
2013-10-15 04:00:00,61.8,59.5,30.09,NW,319,0.0,-999.0,92,0.00,,,0.00,Wunderground v.1.12,2013-10-15 08:00:00,
2013-10-15 04:05:00,61.8,59.5,30.09,NW,319,0.0,-999.0,92,0.00,,,0.00,Wunderground v.1.12,2013-10-15 08:05:00,
2013-10-15 04:10:00,62.0,59.6,30.10,NW,319,0.0,-999.0,92,0.00,,,0.00,Wunderground v.1.12,2013-10-15 08:10:00,
2013-10-15 04:15:00,62.0,59.6,30.10,NW,319,0.0,-999.0,92,0.00,,,0.00,Wunderground v.1.12,2013-10-15 08:15:00,
2013-10-15 04:20:00,62.0,59.6,30.10,NW,319,0.0,-999.0,92,0.00,,,0.00,Wunderground v.1.12,2013-10-15 08:20:00,
2013-10-15 04:26:00,62.0,59.6,30.09,NW,319,0.0,-999.0,92,0.00,,,0.00,Wunderground v.1.12,2013-10-15 08:26:00,
2013-10-15 04:31:00,62.0,59.6,30.09,NW,319,0.0,-999.0,92,0.00,,,0.00,Wunderground v.1.12,2013-10-15 08:31:00,
2013-10-15 04:36:00,62.0,59.6,30.09,NW,319,0.0,-999.0,92,0.00,,,0.00,Wunderground v.1.12,2013-10-15 08:36:00,
2013-10-15 04:41:00,62.0,59.6,30.09,NW,319,0.0,-999.0,92,0.00,,,0.00,Wunderground v.1.12,2013-10-15 08:41:00,
2013-10-15 04:46:00,62.0,59.6,30.09,NW,319,0.0,-999.0,92,0.00,,,0.00,Wunderground v.1.12,2013-10-15 08:46:00,
2013-10-15 04:50:00,61.8,59.5,30.09,NW,319,0.0,-999.0,92,0.00,,,0.00,Wunderground v.1.12,2013-10-15 08:50:00,
2013-10-15 04:55:00,61.8,59.5,30.09,NW,319,0.0,-999.0,92,0.00,,,0.00,Wunderground v.1.12,2013-10-15 08:55:00,
2013-10-15 05:00:00,61.8,59.5,30.09,NW,319,0.0,-999.0,92,0.00,,,0.00,Wunderground v.1.12,2013-10-15 09:00:00,
2013-10-15 05:05:00,61.6,59.3,30.09,NW,319,0.0,-999.0,92,0.00,,,0.00,Wunderground v.1.12,2013-10-15 09:05:00,
2013-10-15 05:10:00,61.6,59.3,30.09,NW,319,0.0,-999.0,92,0.00,,,0.00,Wunderground v.1.12,2013-10-15 09:10:00,
2013-10-15 05:15:00,61.6,59.3,30.09,NW,319,0.0,-999.0,92,0.00,,,0.00,Wunderground v.1.12,2013-10-15 09:15:00,
2013-10-15 05:20:00,61.6,59.3,30.09,NW,319,0.0,-999.0,92,0.00,,,0.00,Wunderground v.1.12,2013-10-15 09:20:00,
2013-10-15 05:25:00,61.5,59.2,30.09,NW,319,0.0,-999.0,92,0.00,,,0.00,Wunderground v.1.12,2013-10-15 09:25:00,
2013-10-15 05:30:00,61.5,59.2,30.09,NW,319,0.0,-999.0,92,0.00,,,0.00,Wunderground v.1.12,2013-10-15 09:30:00,
2013-10-15 05:35:00,61.5,59.2,30.09,NW,319,0.0,-999.0,92,0.00,,,0.00,Wunderground v.1.12,2013-10-15 09:35:00,
2013-10-15 05:40:00,61.6,59.3,30.09,NW,319,0.0,-999.0,92,0.00,,,0.00,Wunderground v.1.12,2013-10-15 09:40:00,
2013-10-15 05:45:00,61.6,59.3,30.09,NW,319,0.0,-999.0,92,0.00,,,0.00,Wunderground v.1.12,2013-10-15 09:45:00,
2013-10-15 05:50:00,61.6,59.3,30.09,NW,319,0.0,-999.0,92,0.00,,,0.00,Wunderground v.1.12,2013-10-15 09:50:00,
2013-10-15 05:55:00,61.6,59.3,30.09,NW,319,0.0,-999.0,92,0.00,,,0.00,Wunderground v.1.12,2013-10-15 09:55:00,
2013-10-15 06:00:00,61.6,58.9,30.09,NW,319,0.0,-999.0,91,0.00,,,0.00,Wunderground v.1.12,2013-10-15 10:00:00,
2013-10-15 06:05:00,61.6,58.9,30.09,NW,321,0.0,-999.0,91,0.00,,,0.00,Wunderground v.1.12,2013-10-15 10:05:00,
2013-10-15 06:10:00,61.6,58.9,30.09,NW,321,0.0,-999.0,91,0.00,,,0.00,Wunderground v.1.12,2013-10-15 10:10:00,
2013-10-15 06:15:00,61.8,59.1,30.09,NW,321,0.0,-999.0,91,0.00,,,0.00,Wunderground v.1.12,2013-10-15 10:15:00,
2013-10-15 06:21:00,61.8,59.1,30.09,NW,321,0.0,-999.0,91,0.00,,,0.00,Wunderground v.1.12,2013-10-15 10:21:00,
2013-10-15 06:26:00,61.8,58.8,30.09,NW,321,0.0,-999.0,90,0.00,,,0.00,Wunderground v.1.12,2013-10-15 10:26:00,
2013-10-15 06:31:00,61.8,58.8,30.09,NW,321,0.0,-999.0,90,0.00,,,0.00,Wunderground v.1.12,2013-10-15 10:31:00,
2013-10-15 06:36:00,61.8,58.8,30.09,NW,321,0.0,-999.0,90,0.00,,,0.00,Wunderground v.1.12,2013-10-15 10:36:00,
2013-10-15 06:41:00,61.8,58.8,30.09,NW,321,0.0,-999.0,90,0.00,,,0.00,Wunderground v.1.12,2013-10-15 10:41:00,
2013-10-15 06:46:00,61.8,58.8,30.09,NW,319,0.0,-999.0,90,0.00,,,0.00,Wunderground v.1.12,2013-10-15 10:46:00,
2013-10-15 06:51:00,61.8,58.5,30.09,NW,321,0.0,-999.0,89,0.00,,,0.00,Wunderground v.1.12,2013-10-15 10:51:00,
2013-10-15 06:56:00,61.8,58.5,30.09,NW,319,0.0,-999.0,89,0.00,,,0.00,Wunderground v.1.12,2013-10-15 10:56:00,
2013-10-15 07:01:00,61.8,58.5,30.09,NW,321,0.0,-999.0,89,0.00,,,0.00,Wunderground v.1.12,2013-10-15 11:01:00,
2013-10-15 07:06:00,61.8,58.5,30.09,NW,321,0.0,-999.0,89,0.00,,,0.00,Wunderground v.1.12,2013-10-15 11:06:00,
2013-10-15 07:11:00,61.8,58.5,30.10,NW,321,0.0,-999.0,89,0.00,,,0.00,Wunderground v.1.12,2013-10-15 11:11:00,
2013-10-15 07:16:00,61.8,58.5,30.10,NW,321,0.0,-999.0,89,0.00,,,0.00,Wunderground v.1.12,2013-10-15 11:16:00,
2013-10-15 07:21:00,61.8,58.2,30.10,NW,321,0.0,-999.0,88,0.00,,,0.00,Wunderground v.1.12,2013-10-15 11:21:00,
2013-10-15 07:26:00,61.8,58.2,30.10,NW,321,0.0,-999.0,88,0.00,,,0.00,Wunderground v.1.12,2013-10-15 11:26:00,
2013-10-15 07:31:00,61.8,58.2,30.10,NW,321,0.0,-999.0,88,0.00,,,0.00,Wunderground v.1.12,2013-10-15 11:31:00,
2013-10-15 07:36:00,61.8,58.2,30.10,NW,321,0.0,-999.0,88,0.00,,,0.00,Wunderground v.1.12,2013-10-15 11:36:00,
2013-10-15 07:41:00,61.8,58.2,30.10,NW,319,0.0,-999.0,88,0.00,,,0.00,Wunderground v.1.12,2013-10-15 11:41:00,
2013-10-15 07:46:00,61.8,58.2,30.10,NW,321,0.0,-999.0,88,0.00,,,0.00,Wunderground v.1.12,2013-10-15 11:46:00,
2013-10-15 07:51:00,61.8,58.2,30.10,NW,321,0.0,-999.0,88,0.00,,,0.00,Wunderground v.1.12,2013-10-15 11:51:00,
2013-10-15 07:56:00,61.8,58.2,30.10,NW,321,0.0,-999.0,88,0.00,,,0.00,Wunderground v.1.12,2013-10-15 11:56:00,
2013-10-15 08:01:00,62.0,58.4,30.10,NW,321,0.0,-999.0,88,0.00,,,0.00,Wunderground v.1.12,2013-10-15 12:01:00,
2013-10-15 08:06:00,62.0,58.4,30.10,NW,321,0.0,-999.0,88,0.00,,,0.00,Wunderground v.1.12,2013-10-15 12:06:00,
2013-10-15 08:11:00,62.0,58.4,30.10,NW,321,0.0,-999.0,88,0.00,,,0.00,Wunderground v.1.12,2013-10-15 12:11:00,
2013-10-15 08:16:00,62.0,58.4,30.10,NW,321,0.0,-999.0,88,0.00,,,0.00,Wunderground v.1.12,2013-10-15 12:16:00,
2013-10-15 08:21:00,62.0,58.4,30.10,NW,321,0.0,-999.0,88,0.00,,,0.00,Wunderground v.1.12,2013-10-15 12:21:00,
2013-10-15 08:26:00,62.0,58.4,30.11,NW,321,0.0,-999.0,88,0.00,,,0.00,Wunderground v.1.12,2013-10-15 12:26:00,
2013-10-15 08:31:00,62.0,58.4,30.11,NW,321,0.0,-999.0,88,0.00,,,0.00,Wunderground v.1.12,2013-10-15 12:31:00,
2013-10-15 08:36:00,62.1,58.5,30.11,NW,321,0.0,-999.0,88,0.00,,,0.00,Wunderground v.1.12,2013-10-15 12:36:00,
2013-10-15 08:41:00,62.1,58.5,30.12,NW,321,0.0,-999.0,88,0.00,,,0.00,Wunderground v.1.12,2013-10-15 12:41:00,
2013-10-15 08:46:00,62.1,58.5,30.12,NW,321,0.0,-999.0,88,0.00,,,0.00,Wunderground v.1.12,2013-10-15 12:46:00,
2013-10-15 08:51:00,62.3,58.7,30.12,NW,321,0.0,-999.0,88,0.00,,,0.00,Wunderground v.1.12,2013-10-15 12:51:00,
2013-10-15 08:56:00,62.3,58.7,30.12,NW,321,0.0,-999.0,88,0.00,,,0.00,Wunderground v.1.12,2013-10-15 12:56:00,
2013-10-15 09:01:00,62.4,58.8,30.12,NW,321,0.0,-999.0,88,0.00,,,0.00,Wunderground v.1.12,2013-10-15 13:01:00,
2013-10-15 09:06:00,62.4,58.8,30.12,NW,319,0.0,-999.0,88,0.00,,,0.00,Wunderground v.1.12,2013-10-15 13:06:00,
2013-10-15 09:11:00,62.4,58.8,30.11,NW,321,0.0,-999.0,88,0.00,,,0.00,Wunderground v.1.12,2013-10-15 13:11:00,
2013-10-15 09:16:00,62.6,59.0,30.11,NW,321,0.0,-999.0,88,0.00,,,0.00,Wunderground v.1.12,2013-10-15 13:16:00,
2013-10-15 09:21:00,62.6,58.7,30.11,NW,319,0.0,-999.0,87,0.00,,,0.00,Wunderground v.1.12,2013-10-15 13:21:00,
2013-10-15 09:26:00,62.7,58.8,30.12,NW,321,0.0,-999.0,87,0.00,,,0.00,Wunderground v.1.12,2013-10-15 13:26:00,
2013-10-15 09:31:00,62.7,58.8,30.12,NW,321,0.0,-999.0,87,0.00,,,0.00,Wunderground v.1.12,2013-10-15 13:31:00,
2013-10-15 09:36:00,62.9,59.0,30.12,NW,321,0.0,-999.0,87,0.00,,,0.00,Wunderground v.1.12,2013-10-15 13:36:00,
2013-10-15 09:41:00,62.9,59.0,30.12,NW,321,0.0,-999.0,87,0.00,,,0.00,Wunderground v.1.12,2013-10-15 13:41:00,
2013-10-15 09:46:00,63.1,58.8,30.12,NW,324,0.0,-999.0,86,0.00,,,0.00,Wunderground v.1.12,2013-10-15 13:46:00,
2013-10-15 09:52:00,63.1,58.8,30.12,NW,325,0.0,-999.0,86,0.00,,,0.00,Wunderground v.1.12,2013-10-15 13:52:00,
2013-10-15 09:57:00,63.2,58.6,30.12,NW,325,0.0,-999.0,85,0.00,,,0.00,Wunderground v.1.12,2013-10-15 13:57:00,
2013-10-15 10:02:00,63.2,58.6,30.12,NW,325,0.0,-999.0,85,0.00,,,0.00,Wunderground v.1.12,2013-10-15 14:02:00,
2013-10-15 10:07:00,63.4,58.8,30.12,NW,325,0.0,-999.0,85,0.00,,,0.00,Wunderground v.1.12,2013-10-15 14:07:00,
2013-10-15 10:12:00,63.5,58.6,30.12,NW,325,0.0,-999.0,84,0.00,,,0.00,Wunderground v.1.12,2013-10-15 14:12:00,
2013-10-15 10:17:00,63.7,58.8,30.12,NW,325,0.0,-999.0,84,0.00,,,0.00,Wunderground v.1.12,2013-10-15 14:17:00,
2013-10-15 10:22:00,63.7,58.4,30.12,NW,325,0.0,-999.0,83,0.00,,,0.00,Wunderground v.1.12,2013-10-15 14:22:00,
2013-10-15 10:27:00,63.9,58.6,30.12,NW,325,0.0,-999.0,83,0.00,,,0.00,Wunderground v.1.12,2013-10-15 14:27:00,
2013-10-15 10:32:00,63.9,58.6,30.12,NW,325,0.0,-999.0,83,0.00,,,0.00,Wunderground v.1.12,2013-10-15 14:32:00,
2013-10-15 10:37:00,63.9,58.3,30.12,NW,325,0.0,-999.0,82,0.00,,,0.00,Wunderground v.1.12,2013-10-15 14:37:00,
2013-10-15 10:42:00,64.0,58.4,30.12,NW,325,0.0,-999.0,82,0.00,,,0.00,Wunderground v.1.12,2013-10-15 14:42:00,
2013-10-15 10:47:00,64.0,58.1,30.12,NW,325,0.0,-999.0,81,0.00,,,0.00,Wunderground v.1.12,2013-10-15 14:47:00,
2013-10-15 10:52:00,64.0,58.1,30.12,NW,322,0.0,-999.0,81,0.00,,,0.00,Wunderground v.1.12,2013-10-15 14:52:00,
2013-10-15 10:57:00,64.0,58.1,30.12,NW,322,0.0,-999.0,81,0.00,,,0.00,Wunderground v.1.12,2013-10-15 14:57:00,
2013-10-15 11:02:00,64.2,58.2,30.12,NW,322,0.0,-999.0,81,0.00,,,0.00,Wunderground v.1.12,2013-10-15 15:02:00,
2013-10-15 11:07:00,64.2,58.2,30.12,NW,322,0.0,-999.0,81,0.00,,,0.00,Wunderground v.1.12,2013-10-15 15:07:00,
2013-10-15 11:12:00,64.3,58.3,30.11,NW,322,0.0,-999.0,81,0.00,,,0.00,Wunderground v.1.12,2013-10-15 15:12:00,
2013-10-15 11:18:00,64.5,58.5,30.11,NW,322,0.0,-999.0,81,0.00,,,0.00,Wunderground v.1.12,2013-10-15 15:18:00,
2013-10-15 11:23:00,64.5,58.2,30.10,NW,322,0.0,-999.0,80,0.00,,,0.00,Wunderground v.1.12,2013-10-15 15:23:00,
2013-10-15 11:28:00,64.7,58.4,30.10,NW,322,0.0,-999.0,80,0.00,,,0.00,Wunderground v.1.12,2013-10-15 15:28:00,
2013-10-15 11:33:00,64.8,58.1,30.10,NW,322,0.0,-999.0,79,0.00,,,0.00,Wunderground v.1.12,2013-10-15 15:33:00,
2013-10-15 11:38:00,65.0,58.3,30.11,NW,322,0.0,-999.0,79,0.00,,,0.00,Wunderground v.1.12,2013-10-15 15:38:00,
2013-10-15 11:44:00,65.2,58.5,30.11,NW,322,0.0,-999.0,79,0.00,,,0.00,Wunderground v.1.12,2013-10-15 15:44:00,
2013-10-15 11:49:00,65.2,58.2,30.11,NW,322,0.0,-999.0,78,0.00,,,0.00,Wunderground v.1.12,2013-10-15 15:49:00,
2013-10-15 11:54:00,65.3,57.9,30.11,NW,322,0.0,-999.0,77,0.00,,,0.00,Wunderground v.1.12,2013-10-15 15:54:00,
2013-10-15 11:59:00,65.5,57.7,30.11,NW,322,0.0,-999.0,76,0.00,,,0.00,Wunderground v.1.12,2013-10-15 15:59:00,
2013-10-15 12:04:00,65.6,57.8,30.11,NW,322,0.0,-999.0,76,0.00,,,0.00,Wunderground v.1.12,2013-10-15 16:04:00,
2013-10-15 12:09:00,65.6,57.1,30.11,NW,322,0.0,-999.0,74,0.00,,,0.00,Wunderground v.1.12,2013-10-15 16:09:00,
2013-10-15 12:14:00,65.8,56.9,30.11,NW,322,0.0,-999.0,73,0.00,,,0.00,Wunderground v.1.12,2013-10-15 16:14:00,
2013-10-15 12:19:00,65.8,56.9,30.11,NW,322,0.0,-999.0,73,0.00,,,0.00,Wunderground v.1.12,2013-10-15 16:19:00,
2013-10-15 12:24:00,65.8,56.9,30.10,NW,322,0.0,-999.0,73,0.00,,,0.00,Wunderground v.1.12,2013-10-15 16:24:00,
2013-10-15 12:29:00,65.8,56.9,30.10,NW,322,0.0,-999.0,73,0.00,,,0.00,Wunderground v.1.12,2013-10-15 16:29:00,
2013-10-15 12:34:00,66.0,57.1,30.10,NW,322,0.0,-999.0,73,0.00,,,0.00,Wunderground v.1.12,2013-10-15 16:34:00,
2013-10-15 12:39:00,66.0,57.1,30.10,NW,322,0.0,-999.0,73,0.00,,,0.00,Wunderground v.1.12,2013-10-15 16:39:00,
2013-10-15 12:44:00,66.1,57.2,30.10,NW,322,0.0,-999.0,73,0.00,,,0.00,Wunderground v.1.12,2013-10-15 16:44:00,
2013-10-15 12:49:00,66.3,57.0,30.10,NW,322,0.0,-999.0,72,0.00,,,0.00,Wunderground v.1.12,2013-10-15 16:49:00,
2013-10-15 12:55:00,66.4,57.5,30.09,NW,322,0.0,-999.0,73,0.00,,,0.00,Wunderground v.1.12,2013-10-15 16:55:00,
2013-10-15 13:00:00,66.6,57.3,30.09,NNW,328,0.0,-999.0,72,0.00,,,0.00,Wunderground v.1.12,2013-10-15 17:00:00,
2013-10-15 13:05:00,66.8,57.1,30.09,NNW,328,0.0,-999.0,71,0.00,,,0.00,Wunderground v.1.12,2013-10-15 17:05:00,
2013-10-15 13:10:00,66.9,57.2,30.08,NNW,328,0.0,-999.0,71,0.00,,,0.00,Wunderground v.1.12,2013-10-15 17:10:00,
2013-10-15 13:15:00,67.1,57.4,30.08,NNW,328,0.0,-999.0,71,0.00,,,0.00,Wunderground v.1.12,2013-10-15 17:15:00,
2013-10-15 13:20:00,67.3,57.6,30.08,NNW,328,0.0,-999.0,71,0.00,,,0.00,Wunderground v.1.12,2013-10-15 17:20:00,
2013-10-15 13:25:00,67.4,57.3,30.07,NNW,328,0.0,-999.0,70,0.00,,,0.00,Wunderground v.1.12,2013-10-15 17:25:00,
2013-10-15 13:30:00,67.6,57.5,30.07,NNW,328,0.0,-999.0,70,0.00,,,0.00,Wunderground v.1.12,2013-10-15 17:30:00,
2013-10-15 13:35:00,67.6,57.5,30.07,NNW,335,0.0,-999.0,70,0.00,,,0.00,Wunderground v.1.12,2013-10-15 17:35:00,
2013-10-15 13:40:00,67.6,57.5,30.07,NNW,335,0.0,-999.0,70,0.00,,,0.00,Wunderground v.1.12,2013-10-15 17:40:00,
2013-10-15 13:45:00,67.6,57.5,30.07,NNW,341,0.0,-999.0,70,0.00,,,0.00,Wunderground v.1.12,2013-10-15 17:45:00,
2013-10-15 13:50:00,67.6,57.5,30.07,NNW,341,0.0,-999.0,70,0.00,,,0.00,Wunderground v.1.12,2013-10-15 17:50:00,
2013-10-15 13:55:00,67.6,57.5,30.06,NNW,341,0.0,-999.0,70,0.00,,,0.00,Wunderground v.1.12,2013-10-15 17:55:00,
2013-10-15 14:00:00,67.6,57.5,30.06,NE,37,0.0,-999.0,70,0.00,,,0.00,Wunderground v.1.12,2013-10-15 18:00:00,
2013-10-15 14:05:00,67.6,57.5,30.06,NE,37,0.0,-999.0,70,0.00,,,0.00,Wunderground v.1.12,2013-10-15 18:05:00,
2013-10-15 14:10:00,67.4,57.3,30.06,East,95,0.0,-999.0,70,0.00,,,0.00,Wunderground v.1.12,2013-10-15 18:10:00,
2013-10-15 14:15:00,67.4,57.3,30.06,East,95,0.0,-999.0,70,0.00,,,0.00,Wunderground v.1.12,2013-10-15 18:15:00,
2013-10-15 14:20:00,67.3,57.6,30.06,East,95,0.0,-999.0,71,0.00,,,0.00,Wunderground v.1.12,2013-10-15 18:20:00,
2013-10-15 14:25:00,67.3,57.6,30.05,East,95,0.0,-999.0,71,0.00,,,0.00,Wunderground v.1.12,2013-10-15 18:25:00,
2013-10-15 14:30:00,67.1,57.8,30.05,East,95,0.0,-999.0,72,0.00,,,0.00,Wunderground v.1.12,2013-10-15 18:30:00,
2013-10-15 14:35:00,67.1,57.8,30.05,East,95,0.0,-999.0,72,0.00,,,0.00,Wunderground v.1.12,2013-10-15 18:35:00,
2013-10-15 14:40:00,67.1,57.8,30.04,East,95,0.0,-999.0,72,0.00,,,0.00,Wunderground v.1.12,2013-10-15 18:40:00,
2013-10-15 14:45:00,67.1,57.4,30.04,East,95,0.0,-999.0,71,0.00,,,0.00,Wunderground v.1.12,2013-10-15 18:45:00,
2013-10-15 14:50:00,67.3,57.6,30.04,East,86,0.0,-999.0,71,0.00,,,0.00,Wunderground v.1.12,2013-10-15 18:50:00,
2013-10-15 14:55:00,67.3,57.6,30.04,East,86,0.0,-999.0,71,0.00,,,0.00,Wunderground v.1.12,2013-10-15 18:55:00,
2013-10-15 15:00:00,67.3,57.6,30.04,East,86,0.0,-999.0,71,0.00,,,0.00,Wunderground v.1.12,2013-10-15 19:00:00,
2013-10-15 15:05:00,67.3,57.6,30.04,East,95,0.0,-999.0,71,0.00,,,0.00,Wunderground v.1.12,2013-10-15 19:05:00,
2013-10-15 15:10:00,67.3,57.6,30.04,East,95,0.0,-999.0,71,0.00,,,0.00,Wunderground v.1.12,2013-10-15 19:10:00,
2013-10-15 15:15:00,67.3,57.6,30.04,East,95,0.0,-999.0,71,0.00,,,0.00,Wunderground v.1.12,2013-10-15 19:15:00,
2013-10-15 15:21:00,67.3,57.6,30.04,East,95,0.0,-999.0,71,0.00,,,0.00,Wunderground v.1.12,2013-10-15 19:21:00,
2013-10-15 15:26:00,67.3,57.6,30.04,East,95,0.0,-999.0,71,0.00,,,0.00,Wunderground v.1.12,2013-10-15 19:26:00,
2013-10-15 15:31:00,67.3,57.6,30.04,East,95,0.0,-999.0,71,0.00,,,0.00,Wunderground v.1.12,2013-10-15 19:31:00,
2013-10-15 15:36:00,67.3,57.6,30.04,East,95,0.0,-999.0,71,0.00,,,0.00,Wunderground v.1.12,2013-10-15 19:36:00,
2013-10-15 15:41:00,67.3,57.6,30.04,East,95,0.0,-999.0,71,0.00,,,0.00,Wunderground v.1.12,2013-10-15 19:41:00,
2013-10-15 15:46:00,67.4,57.7,30.04,East,95,0.0,-999.0,71,0.00,,,0.00,Wunderground v.1.12,2013-10-15 19:46:00,
2013-10-15 15:51:00,67.4,57.7,30.04,East,95,0.0,-999.0,71,0.00,,,0.00,Wunderground v.1.12,2013-10-15 19:51:00,
2013-10-15 15:56:00,67.4,57.3,30.03,East,95,0.0,-999.0,70,0.00,,,0.00,Wunderground v.1.12,2013-10-15 19:56:00,
2013-10-15 16:01:00,67.4,57.3,30.03,East,95,0.0,-999.0,70,0.00,,,0.00,Wunderground v.1.12,2013-10-15 20:01:00,
2013-10-15 16:06:00,67.4,57.3,30.03,East,99,0.0,-999.0,70,0.00,,,0.00,Wunderground v.1.12,2013-10-15 20:06:00,
2013-10-15 16:11:00,67.6,57.5,30.04,East,99,0.0,-999.0,70,0.00,,,0.00,Wunderground v.1.12,2013-10-15 20:11:00,
2013-10-15 16:16:00,67.6,57.9,30.04,East,99,0.0,-999.0,71,0.00,,,0.00,Wunderground v.1.12,2013-10-15 20:16:00,
2013-10-15 16:21:00,67.6,57.9,30.04,East,99,0.0,-999.0,71,0.00,,,0.00,Wunderground v.1.12,2013-10-15 20:21:00,
2013-10-15 16:26:00,67.6,57.5,30.03,East,99,0.0,-999.0,70,0.00,,,0.00,Wunderground v.1.12,2013-10-15 20:26:00,
2013-10-15 16:31:00,67.8,57.7,30.03,East,99,0.0,-999.0,70,0.00,,,0.00,Wunderground v.1.12,2013-10-15 20:31:00,
2013-10-15 16:36:00,67.8,57.7,30.03,East,99,0.0,-999.0,70,0.00,,,0.00,Wunderground v.1.12,2013-10-15 20:36:00,
2013-10-15 16:41:00,67.8,57.7,30.03,East,99,0.0,-999.0,70,0.00,,,0.00,Wunderground v.1.12,2013-10-15 20:41:00,
2013-10-15 16:46:00,67.8,57.7,30.03,East,99,0.0,-999.0,70,0.00,,,0.00,Wunderground v.1.12,2013-10-15 20:46:00,
2013-10-15 16:52:00,67.8,58.1,30.03,East,99,0.0,-999.0,71,0.00,,,0.00,Wunderground v.1.12,2013-10-15 20:52:00,
2013-10-15 16:57:00,67.8,58.1,30.04,East,99,0.0,-999.0,71,0.00,,,0.00,Wunderground v.1.12,2013-10-15 20:57:00,
2013-10-15 17:02:00,67.8,58.4,30.04,East,99,0.0,-999.0,72,0.00,,,0.00,Wunderground v.1.12,2013-10-15 21:02:00,
2013-10-15 17:07:00,67.6,58.2,30.04,East,99,0.0,-999.0,72,0.00,,,0.00,Wunderground v.1.12,2013-10-15 21:07:00,
2013-10-15 17:12:00,67.6,58.2,30.03,East,99,0.0,-999.0,72,0.00,,,0.00,Wunderground v.1.12,2013-10-15 21:12:00,
2013-10-15 17:17:00,67.4,57.7,30.03,East,99,0.0,-999.0,71,0.00,,,0.00,Wunderground v.1.12,2013-10-15 21:17:00,
2013-10-15 17:22:00,67.4,58.1,30.03,East,99,0.0,-999.0,72,0.00,,,0.00,Wunderground v.1.12,2013-10-15 21:22:00,
2013-10-15 17:27:00,67.3,58.0,30.03,East,99,0.0,-999.0,72,0.00,,,0.00,Wunderground v.1.12,2013-10-15 21:27:00,
2013-10-15 17:32:00,67.3,58.0,30.03,East,99,0.0,-999.0,72,0.00,,,0.00,Wunderground v.1.12,2013-10-15 21:32:00,
2013-10-15 17:37:00,67.1,57.8,30.03,East,99,0.0,-999.0,72,0.00,,,0.00,Wunderground v.1.12,2013-10-15 21:37:00,
2013-10-15 17:42:00,67.1,58.2,30.03,East,99,0.0,-999.0,73,0.00,,,0.00,Wunderground v.1.12,2013-10-15 21:42:00,
2013-10-15 17:48:00,66.9,58.0,30.03,East,99,0.0,-999.0,73,0.00,,,0.00,Wunderground v.1.12,2013-10-15 21:48:00,
2013-10-15 17:53:00,66.8,57.9,30.03,East,99,0.0,-999.0,73,0.00,,,0.00,Wunderground v.1.12,2013-10-15 21:53:00,
2013-10-15 17:58:00,66.8,58.2,30.03,East,99,0.0,-999.0,74,0.00,,,0.00,Wunderground v.1.12,2013-10-15 21:58:00,
2013-10-15 18:03:00,66.6,58.1,30.03,East,99,0.0,-999.0,74,0.00,,,0.00,Wunderground v.1.12,2013-10-15 22:03:00,
2013-10-15 18:08:00,66.6,58.1,30.02,East,99,0.0,-999.0,74,0.00,,,0.00,Wunderground v.1.12,2013-10-15 22:08:00,
2013-10-15 18:13:00,66.4,58.2,30.02,East,99,0.0,-999.0,75,0.00,,,0.00,Wunderground v.1.12,2013-10-15 22:13:00,
2013-10-15 18:18:00,66.3,58.1,30.02,East,99,0.0,-999.0,75,0.00,,,0.00,Wunderground v.1.12,2013-10-15 22:18:00,
2013-10-15 18:24:00,66.3,58.1,30.02,East,99,0.0,-999.0,75,0.00,,,0.00,Wunderground v.1.12,2013-10-15 22:24:00,
2013-10-15 18:29:00,66.1,57.9,30.02,East,99,0.0,-999.0,75,0.00,,,0.00,Wunderground v.1.12,2013-10-15 22:29:00,
2013-10-15 18:34:00,66.1,58.3,30.02,East,99,0.0,-999.0,76,0.00,,,0.00,Wunderground v.1.12,2013-10-15 22:34:00,
2013-10-15 18:39:00,66.0,58.2,30.02,East,99,0.0,-999.0,76,0.00,,,0.00,Wunderground v.1.12,2013-10-15 22:39:00,
2013-10-15 18:44:00,66.0,58.2,30.02,East,99,0.0,-999.0,76,0.00,,,0.00,Wunderground v.1.12,2013-10-15 22:44:00,
2013-10-15 18:49:00,65.8,58.4,30.02,East,99,0.0,-999.0,77,0.00,,,0.00,Wunderground v.1.12,2013-10-15 22:49:00,
2013-10-15 18:54:00,65.8,58.4,30.02,East,99,0.0,-999.0,77,0.00,,,0.00,Wunderground v.1.12,2013-10-15 22:54:00,
2013-10-15 18:59:00,65.6,58.2,30.02,East,99,0.0,-999.0,77,0.00,,,0.00,Wunderground v.1.12,2013-10-15 22:59:00,
2013-10-15 19:04:00,65.5,58.1,30.02,East,99,0.0,-999.0,77,0.00,,,0.00,Wunderground v.1.12,2013-10-15 23:04:00,
2013-10-15 19:09:00,65.3,58.3,30.03,East,99,0.0,-999.0,78,0.00,,,0.00,Wunderground v.1.12,2013-10-15 23:09:00,
2013-10-15 19:14:00,65.2,58.2,30.03,East,99,0.0,-999.0,78,0.00,,,0.00,Wunderground v.1.12,2013-10-15 23:14:00,
2013-10-15 19:19:00,65.2,58.2,30.03,East,99,0.0,-999.0,78,0.00,,,0.00,Wunderground v.1.12,2013-10-15 23:19:00,
2013-10-15 19:24:00,65.0,58.3,30.03,East,99,0.0,-999.0,79,0.00,,,0.00,Wunderground v.1.12,2013-10-15 23:24:00,
2013-10-15 19:29:00,64.8,58.1,30.03,East,99,0.0,-999.0,79,0.00,,,0.00,Wunderground v.1.12,2013-10-15 23:29:00,
2013-10-15 19:35:00,64.7,58.0,30.03,East,99,0.0,-999.0,79,0.00,,,0.00,Wunderground v.1.12,2013-10-15 23:35:00,
2013-10-15 19:40:00,64.5,57.8,30.03,East,99,0.0,-999.0,79,0.00,,,0.00,Wunderground v.1.12,2013-10-15 23:40:00,
2013-10-15 19:45:00,64.5,58.2,30.03,East,99,0.0,-999.0,80,0.00,,,0.00,Wunderground v.1.12,2013-10-15 23:45:00,
2013-10-15 19:50:00,64.3,58.0,30.03,East,99,0.0,-999.0,80,0.00,,,0.00,Wunderground v.1.12,2013-10-15 23:50:00,
2013-10-15 19:55:00,64.3,58.0,30.03,East,99,0.0,-999.0,80,0.00,,,0.00,Wunderground v.1.12,2013-10-15 23:55:00,
2013-10-15 20:00:00,64.2,57.9,30.03,East,99,0.0,-999.0,80,0.00,,,0.00,Wunderground v.1.12,2013-10-16 00:00:00,
2013-10-15 20:05:00,64.0,57.7,30.03,East,99,0.0,-999.0,80,0.00,,,0.00,Wunderground v.1.12,2013-10-16 00:05:00,
2013-10-15 20:10:00,64.0,58.1,30.04,East,99,0.0,-999.0,81,0.00,,,0.00,Wunderground v.1.12,2013-10-16 00:10:00,
2013-10-15 20:15:00,63.9,58.0,30.04,East,99,0.0,-999.0,81,0.00,,,0.00,Wunderground v.1.12,2013-10-16 00:15:00,
2013-10-15 20:20:00,63.9,58.0,30.04,East,99,0.0,-999.0,81,0.00,,,0.00,Wunderground v.1.12,2013-10-16 00:20:00,
2013-10-15 20:25:00,63.7,57.8,30.04,East,99,0.0,-999.0,81,0.00,,,0.00,Wunderground v.1.12,2013-10-16 00:25:00,
2013-10-15 20:30:00,63.7,57.8,30.04,East,99,0.0,-999.0,81,0.00,,,0.00,Wunderground v.1.12,2013-10-16 00:30:00,
2013-10-15 20:35:00,63.7,58.1,30.04,East,99,0.0,-999.0,82,0.00,,,0.00,Wunderground v.1.12,2013-10-16 00:35:00,
2013-10-15 20:40:00,63.5,57.9,30.05,East,99,0.0,-999.0,82,0.00,,,0.00,Wunderground v.1.12,2013-10-16 00:40:00,
2013-10-15 20:45:00,63.5,57.9,30.05,East,99,0.0,-999.0,82,0.00,,,0.00,Wunderground v.1.12,2013-10-16 00:45:00,
2013-10-15 20:50:00,63.5,57.9,30.05,East,99,0.0,-999.0,82,0.00,,,0.00,Wunderground v.1.12,2013-10-16 00:50:00,
2013-10-15 20:55:00,63.4,57.8,30.05,East,99,0.0,-999.0,82,0.00,,,0.00,Wunderground v.1.12,2013-10-16 00:55:00,
2013-10-15 21:00:00,63.4,57.8,30.05,East,99,0.0,-999.0,82,0.00,,,0.00,Wunderground v.1.12,2013-10-16 01:00:00,
2013-10-15 21:06:00,63.4,57.8,30.05,East,99,0.0,-999.0,82,0.00,,,0.00,Wunderground v.1.12,2013-10-16 01:06:00,
2013-10-15 21:11:00,63.4,58.1,30.05,East,99,0.0,-999.0,83,0.00,,,0.00,Wunderground v.1.12,2013-10-16 01:11:00,
2013-10-15 21:16:00,63.2,57.9,30.05,East,99,0.0,-999.0,83,0.00,,,0.00,Wunderground v.1.12,2013-10-16 01:16:00,
2013-10-15 21:21:00,63.2,57.9,30.05,East,99,0.0,-999.0,83,0.00,,,0.00,Wunderground v.1.12,2013-10-16 01:21:00,
2013-10-15 21:26:00,63.2,57.9,30.05,East,99,0.0,-999.0,83,0.00,,,0.00,Wunderground v.1.12,2013-10-16 01:26:00,
2013-10-15 21:31:00,63.2,57.9,30.05,East,99,0.0,-999.0,83,0.00,,,0.00,Wunderground v.1.12,2013-10-16 01:31:00,
2013-10-15 21:36:00,63.2,57.9,30.05,East,99,0.0,-999.0,83,0.00,,,0.00,Wunderground v.1.12,2013-10-16 01:36:00,
2013-10-15 21:41:00,63.1,58.2,30.05,East,99,0.0,-999.0,84,0.00,,,0.00,Wunderground v.1.12,2013-10-16 01:41:00,
2013-10-15 21:46:00,63.1,57.9,30.05,East,99,0.0,-999.0,83,0.00,,,0.00,Wunderground v.1.12,2013-10-16 01:46:00,
2013-10-15 21:51:00,63.1,58.2,30.05,East,99,0.0,-999.0,84,0.00,,,0.00,Wunderground v.1.12,2013-10-16 01:51:00,
2013-10-15 21:56:00,63.1,58.2,30.05,East,99,0.0,-999.0,84,0.00,,,0.00,Wunderground v.1.12,2013-10-16 01:56:00,
2013-10-15 22:01:00,62.9,58.0,30.05,East,99,0.0,-999.0,84,0.00,,,0.00,Wunderground v.1.12,2013-10-16 02:01:00,
2013-10-15 22:06:00,62.9,58.0,30.05,East,99,0.0,-999.0,84,0.00,,,0.00,Wunderground v.1.12,2013-10-16 02:06:00,
2013-10-15 22:11:00,62.9,58.0,30.05,East,99,0.0,-999.0,84,0.00,,,0.00,Wunderground v.1.12,2013-10-16 02:11:00,
2013-10-15 22:16:00,62.7,57.8,30.05,East,99,0.0,-999.0,84,0.00,,,0.00,Wunderground v.1.12,2013-10-16 02:16:00,
2013-10-15 22:21:00,62.7,57.8,30.05,East,99,0.0,-999.0,84,0.00,,,0.00,Wunderground v.1.12,2013-10-16 02:21:00,
2013-10-15 22:26:00,62.7,57.8,30.05,East,99,0.0,-999.0,84,0.00,,,0.00,Wunderground v.1.12,2013-10-16 02:26:00,
2013-10-15 22:31:00,62.6,57.7,30.05,East,99,0.0,-999.0,84,0.00,,,0.00,Wunderground v.1.12,2013-10-16 02:31:00,
2013-10-15 22:36:00,62.6,57.7,30.05,East,99,0.0,-999.0,84,0.00,,,0.00,Wunderground v.1.12,2013-10-16 02:36:00,
2013-10-15 22:41:00,62.6,57.7,30.05,East,99,0.0,-999.0,84,0.00,,,0.00,Wunderground v.1.12,2013-10-16 02:41:00,
2013-10-15 22:46:00,62.6,57.7,30.05,East,99,0.0,-999.0,84,0.00,,,0.00,Wunderground v.1.12,2013-10-16 02:46:00,
2013-10-15 22:51:00,62.4,57.5,30.05,East,99,0.0,-999.0,84,0.00,,,0.00,Wunderground v.1.12,2013-10-16 02:51:00,
2013-10-15 22:56:00,62.4,57.5,30.05,East,99,0.0,-999.0,84,0.00,,,0.00,Wunderground v.1.12,2013-10-16 02:56:00,
2013-10-15 23:01:00,62.4,57.8,30.05,East,99,0.0,-999.0,85,0.00,,,0.00,Wunderground v.1.12,2013-10-16 03:01:00,
2013-10-15 23:06:00,62.4,57.8,30.05,East,99,0.0,-999.0,85,0.00,,,0.00,Wunderground v.1.12,2013-10-16 03:06:00,
2013-10-15 23:11:00,62.4,57.8,30.05,East,99,0.0,-999.0,85,0.00,,,0.00,Wunderground v.1.12,2013-10-16 03:11:00,
2013-10-15 23:16:00,62.3,57.7,30.05,East,99,0.0,-999.0,85,0.00,,,0.00,Wunderground v.1.12,2013-10-16 03:16:00,
2013-10-15 23:21:00,62.3,57.7,30.05,East,99,0.0,-999.0,85,0.00,,,0.00,Wunderground v.1.12,2013-10-16 03:21:00,
2013-10-15 23:26:00,62.3,57.7,30.05,East,99,0.0,-999.0,85,0.00,,,0.00,Wunderground v.1.12,2013-10-16 03:26:00,
2013-10-15 23:31:00,62.3,57.7,30.05,East,99,0.0,-999.0,85,0.00,,,0.00,Wunderground v.1.12,2013-10-16 03:31:00,
2013-10-15 23:36:00,62.1,57.5,30.05,East,99,0.0,-999.0,85,0.00,,,0.00,Wunderground v.1.12,2013-10-16 03:36:00,
2013-10-15 23:41:00,62.1,57.5,30.04,East,99,0.0,-999.0,85,0.00,,,0.00,Wunderground v.1.12,2013-10-16 03:41:00,
2013-10-15 23:46:00,62.1,57.5,30.04,East,99,0.0,-999.0,85,0.00,,,0.00,Wunderground v.1.12,2013-10-16 03:46:00,
2013-10-15 23:51:00,62.0,57.4,30.04,East,99,0.0,-999.0,85,0.00,,,0.00,Wunderground v.1.12,2013-10-16 03:51:00,
2013-10-15 23:56:00,62.0,57.4,30.04,East,99,0.0,-999.0,85,0.00,,,0.00,Wunderground v.1.12,2013-10-16 03:56:00,